Tracking 19817 objects as of 19-Aug-2019
HD Live streaming from Space Station
objects crossing your sky now

COSMOS 2251 DEB

Track COSMOS 2251 DEB now!
10-day predictions


NORAD ID: 36048
Int'l Code: 1993-036AXK
Perigee: 765.0 km
Apogee: 803.4 km
Inclination: 74.1 °
Period: 100.4 minutes
Semi major axis: 7155 km
RCS: 0.0095 m2 (small)
Launch date: June 16, 1993
Source: Commonwealth of Independent States (former USSR) (CIS)
Launch site: PLESETSK MISSILE AND SPACE COMPLEX (PKMTR)

Note: This is SATELLITE DEBRIS
aabbcc
Your satellite tracking list
Your tracking list is empty




NASA's NSSDC Master Catalog

Two Line Element Set (TLE):
1 36048U 93036AXK 19230.63950545 +.00000060 +00000-0 +30374-4 0  9991
2 36048 074.0570 206.9802 0026816 116.9679 001.4446 14.34405727523843
Source of the keplerian elements: AFSPC